�������l�o���
Date,Time,MP-1(��Sv/h),MP-2(��Sv/h),MP-3(��Sv/h),MP-4(��Sv/h),MP-5(��Sv/h),MP-6(��Sv/h),MP-7(��Sv/h),MP-8(��Sv/h),����,����(m/s),���J
2023/02/27,00:00,0.566,0.825,0.502,1.052,0.730,0.322,0.582,0.556,�k�k��,7.7,��
2023/02/27,00:10,0.566,0.823,0.502,1.053,0.731,0.322,0.583,0.555,�k��,7.9,��
2023/02/27,00:20,0.565,0.824,0.501,1.051,0.732,0.322,0.581,0.554,�k�k��,7.7,��
2023/02/27,00:30,0.565,0.824,0.502,1.051,0.731,0.322,0.582,0.556,�k�k��,7.1,��
2023/02/27,00:40,0.564,0.824,0.502,1.052,0.733,0.323,0.583,0.556,�k�k��,8.3,��
2023/02/27,00:50,0.564,0.823,0.501,1.054,0.732,0.321,0.582,0.555,�k�k��,7.4,��
2023/02/27,01:00,0.564,0.824,0.500,1.049,0.732,0.322,0.583,0.555,�k�k��,6.6,��
2023/02/27,01:10,0.564,0.823,0.502,1.051,0.732,0.322,0.583,0.556,�k�k��,7.5,��
2023/02/27,01:20,0.565,0.823,0.501,1.050,0.733,0.321,0.583,0.555,�k�k��,7.6,��
2023/02/27,01:30,0.564,0.822,0.502,1.051,0.733,0.322,0.581,0.555,�k�k��,7.4,��
2023/02/27,01:40,0.567,0.823,0.502,1.053,0.732,0.322,0.582,0.555,�k�k��,6.7,��
2023/02/27,01:50,0.565,0.822,0.502,1.053,0.732,0.323,0.582,0.555,�k�k��,6.9,��
2023/02/27,02:00,0.563,0.824,0.502,1.051,0.732,0.321,0.583,0.554,�k�k��,7.2,��
2023/02/27,02:10,0.565,0.824,0.502,1.052,0.731,0.322,0.583,0.552,�k�k��,7.3,��
2023/02/27,02:20,0.567,0.823,0.501,1.052,0.731,0.322,0.582,0.554,�k�k��,6.9,��
2023/02/27,02:30,0.566,0.821,0.501,1.051,0.732,0.322,0.582,0.555,�k�k��,7.2,��
2023/02/27,02:40,0.563,0.822,0.502,1.052,0.730,0.322,0.582,0.553,�k�k��,5.5,��
2023/02/27,02:50,0.564,0.826,0.501,1.051,0.732,0.321,0.583,0.552,�k��,4.8,��
2023/02/27,03:00,0.566,0.824,0.501,1.049,0.732,0.320,0.582,0.555,���k��,1.5,��
2023/02/27,03:10,0.565,0.824,0.502,1.051,0.731,0.322,0.583,0.553,�k��,2.8,��
2023/02/27,03:20,0.565,0.822,0.503,1.050,0.731,0.321,0.581,0.552,�k��,3.3,��
2023/02/27,03:30,0.563,0.823,0.501,1.052,0.732,0.321,0.581,0.553,�k�k��,3.4,��
2023/02/27,03:40,0.565,0.821,0.501,1.050,0.731,0.321,0.582,0.554,�k�k��,2.9,��
2023/02/27,03:50,0.565,0.822,0.501,1.051,0.732,0.321,0.581,0.553,�k�k��,3.5,��
2023/02/27,04:00,0.565,0.822,0.502,1.049,0.730,0.321,0.580,0.553,�k�k��,3.7,��
2023/02/27,04:10,0.566,0.823,0.501,1.050,0.733,0.321,0.580,0.554,�k�k��,3.8,��
2023/02/27,04:20,0.564,0.824,0.501,1.049,0.732,0.321,0.580,0.554,�k�k��,3.3,��
2023/02/27,04:30,0.564,0.823,0.500,1.049,0.732,0.320,0.582,0.553,�k��,5.3,��
2023/02/27,04:40,0.566,0.823,0.502,1.050,0.730,0.321,0.581,0.554,�k��,6.2,��
2023/02/27,04:50,0.563,0.823,0.502,1.050,0.731,0.321,0.581,0.553,�k��,6.4,��
2023/02/27,05:00,0.563,0.825,0.502,1.051,0.732,0.321,0.581,0.553,�k��,5.9,��
2023/02/27,05:10,0.565,0.823,0.500,1.051,0.730,0.320,0.581,0.553,�k��,5.6,��
2023/02/27,05:20,0.564,0.824,0.503,1.053,0.731,0.322,0.580,0.553,�k��,7.3,��
2023/02/27,05:30,0.563,0.824,0.500,1.052,0.731,0.320,0.581,0.552,�k��,7.1,��
2023/02/27,05:40,0.565,0.823,0.501,1.050,0.732,0.321,0.581,0.553,�k��,8.2,��
2023/02/27,05:50,0.563,0.825,0.501,1.051,0.733,0.322,0.582,0.554,�k��,8.9,��
2023/02/27,06:00,0.564,0.822,0.502,1.050,0.731,0.321,0.583,0.554,�k��,7.9,��
2023/02/27,06:10,0.564,0.824,0.501,1.051,0.730,0.319,0.584,0.552,�k��,6.5,��
2023/02/27,06:20,0.565,0.823,0.501,1.050,0.731,0.320,0.582,0.554,�k�k��,5.0,��
2023/02/27,06:30,0.564,0.823,0.501,1.050,0.730,0.321,0.581,0.553,�k�k��,5.7,��
2023/02/27,06:40,0.564,0.822,0.502,1.051,0.731,0.319,0.582,0.553,�k�k��,7.2,��
2023/02/27,06:50,0.562,0.823,0.502,1.049,0.732,0.320,0.582,0.554,�k�k��,8.9,��
2023/02/27,07:00,0.563,0.823,0.502,1.051,0.730,0.320,0.583,0.553,�k�k��,8.4,��
2023/02/27,07:10,0.562,0.823,0.500,1.050,0.732,0.320,0.583,0.554,�k,5.8,��
2023/02/27,07:20,0.565,0.825,0.501,1.049,0.731,0.320,0.580,0.554,�k,4.9,��
2023/02/27,07:30,0.563,0.825,0.502,1.050,0.733,0.320,0.581,0.553,�k,5.2,��
2023/02/27,07:40,0.564,0.823,0.502,1.049,0.730,0.320,0.582,0.553,�k,6.4,��
2023/02/27,07:50,0.564,0.824,0.501,1.051,0.729,0.321,0.582,0.553,�k,6.8,��
2023/02/27,08:00,0.564,0.824,0.501,1.052,0.731,0.322,0.582,0.553,�k,6.7,��
2023/02/27,08:10,0.564,0.821,0.501,1.051,0.730,0.321,0.582,0.552,�k,5.5,��
2023/02/27,08:20,0.565,0.821,0.502,1.052,0.731,0.320,0.581,0.552,�k,5.0,��
2023/02/27,08:30,0.565,0.821,0.502,1.053,0.732,0.323,0.582,0.553,�k�k��,5.7,��
2023/02/27,08:40,0.565,0.822,0.500,1.050,0.729,0.322,0.583,0.554,�k�k��,6.2,��
2023/02/27,08:50,0.565,0.824,0.501,1.050,0.730,0.321,0.584,0.554,�k,5.4,��
2023/02/27,09:00,0.566,0.822,0.502,1.055,0.732,0.322,0.583,0.554,�k,4.7,��
2023/02/27,09:10,0.568,0.821,0.502,1.053,0.733,0.322,0.583,0.552,�k,4.2,��
2023/02/27,09:20,0.565,0.822,0.501,1.050,0.731,0.322,0.583,0.553,�k�k��,3.7,��
2023/02/27,09:30,0.566,0.822,0.503,1.052,0.733,0.322,0.582,0.553,�k,4.1,��
2023/02/27,09:40,0.567,0.821,0.502,1.051,0.731,0.321,0.580,0.553,�k,5.5,��
2023/02/27,09:50,0.566,0.821,0.503,1.050,0.730,0.321,0.581,0.554,�k,5.1,��
2023/02/27,10:00,0.567,0.821,0.503,1.051,0.731,0.322,0.581,0.555,�k,3.7,��
2023/02/27,10:10,0.566,0.820,0.504,1.052,0.732,0.321,0.581,0.553,�k��,1.5,��
2023/02/27,10:20,0.566,0.822,0.502,1.052,0.731,0.321,0.580,0.554,�k,4.4,��
2023/02/27,10:30,0.566,0.822,0.503,1.054,0.732,0.322,0.580,0.553,�k�k��,3.4,��
2023/02/27,10:40,0.567,0.822,0.501,1.052,0.733,0.322,0.582,0.556,�k�k��,4.9,��
2023/02/27,10:50,0.566,0.821,0.503,1.052,0.732,0.321,0.581,0.555,�k��,3.4,��
2023/02/27,11:00,0.565,0.822,0.503,1.052,0.733,0.321,0.579,0.555,�k��,2.9,��
2023/02/27,11:10,0.566,0.821,0.503,1.054,0.734,0.322,0.581,0.554,���쓌,4.2,��
2023/02/27,11:20,0.567,0.822,0.503,1.054,0.731,0.321,0.580,0.555,�쓌,4.7,��
2023/02/27,11:30,0.563,0.822,0.502,1.053,0.730,0.321,0.581,0.554,���쓌,3.1,��
2023/02/27,11:40,0.566,0.821,0.505,1.052,0.733,0.321,0.580,0.554,���쓌,3.0,��
2023/02/27,11:50,0.567,0.821,0.502,1.052,0.732,0.321,0.579,0.554,���쓌,3.3,��
2023/02/27,12:00,0.565,0.824,0.504,1.051,0.733,0.320,0.579,0.554,���쓌,3.0,��
2023/02/27,12:10,0.568,0.822,0.505,1.054,0.733,0.322,0.580,0.555,���쓌,3.0,��
2023/02/27,12:20,0.568,0.822,0.503,1.052,0.732,0.321,0.580,0.556,���쓌,2.6,��
2023/02/27,12:30,0.567,0.824,0.503,1.054,0.732,0.322,0.580,0.556,���쓌,3.6,��
2023/02/27,12:40,0.565,0.821,0.504,1.054,0.732,0.322,0.581,0.555,�쓌,4.4,��
2023/02/27,12:50,0.566,0.823,0.504,1.053,0.733,0.322,0.582,0.556,�쓌,3.9,��
2023/02/27,13:00,0.566,0.821,0.503,1.054,0.731,0.322,0.580,0.554,�쓌,3.9,��
2023/02/27,13:10,0.568,0.823,0.505,1.052,0.732,0.322,0.581,0.555,�쓌,4.4,��
2023/02/27,13:20,0.567,0.822,0.504,1.052,0.732,0.322,0.581,0.553,�쓌,3.3,��
2023/02/27,13:30,0.567,0.822,0.503,1.053,0.734,0.322,0.581,0.552,�쓌,3.6,��
2023/02/27,13:40,0.569,0.820,0.502,1.054,0.733,0.323,0.581,0.552,�쓌,4.7,��
2023/02/27,13:50,0.563,0.823,0.503,1.053,0.732,0.323,0.580,0.553,���쓌,4.1,��
2023/02/27,14:00,0.565,0.821,0.504,1.052,0.735,0.324,0.578,0.551,�쓌,3.6,��
2023/02/27,14:10,0.569,0.822,0.504,1.053,0.733,0.322,0.582,0.552,�쓌,3.8,��
2023/02/27,14:20,0.567,0.823,0.504,1.055,0.733,0.321,0.580,0.554,�쓌,4.6,��
2023/02/27,14:30,0.568,0.825,0.504,1.054,0.734,0.322,0.580,0.552,�쓌,4.5,��
2023/02/27,14:40,0.566,0.826,0.504,1.055,0.733,0.324,0.580,0.553,��쓌,4.9,��
2023/02/27,14:50,0.566,0.828,0.504,1.052,0.734,0.323,0.581,0.553,�쓌,4.4,��
2023/02/27,15:00,0.566,0.825,0.503,1.053,0.733,0.323,0.581,0.552,��쓌,3.9,��
2023/02/27,15:10,0.567,0.828,0.503,1.053,0.733,0.323,0.580,0.551,��쓌,4.3,��
2023/02/27,15:20,0.568,0.826,0.504,1.054,0.734,0.323,0.582,0.553,�쓌,4.2,��
2023/02/27,15:30,0.567,0.827,0.504,1.052,0.734,0.322,0.580,0.553,�쓌,4.1,��
2023/02/27,15:40,0.566,0.826,0.504,1.053,0.733,0.323,0.583,0.554,�쓌,4.2,��
2023/02/27,15:50,0.569,0.829,0.505,1.053,0.733,0.322,0.581,0.553,�쓌,4.5,��
2023/02/27,16:00,0.568,0.827,0.504,1.052,0.732,0.324,0.583,0.556,��쓌,4.1,��
2023/02/27,16:10,0.567,0.827,0.504,1.055,0.734,0.323,0.583,0.555,��쓌,3.3,��
2023/02/27,16:20,0.567,0.825,0.505,1.055,0.733,0.323,0.582,0.554,�쓌,3.6,��
2023/02/27,16:30,0.568,0.827,0.504,1.055,0.733,0.323,0.583,0.555,��쓌,3.5,��
2023/02/27,16:40,0.567,0.827,0.505,1.052,0.732,0.323,0.583,0.555,��쓌,3.2,��
2023/02/27,16:50,0.567,0.824,0.504,1.055,0.734,0.324,0.584,0.554,��쓌,3.8,��
2023/02/27,17:00,0.569,0.825,0.505,1.051,0.734,0.322,0.583,0.555,��,2.9,��
2023/02/27,17:10,0.566,0.826,0.505,1.053,0.733,0.323,0.583,0.555,��,3.3,��
2023/02/27,17:20,0.567,0.824,0.505,1.054,0.734,0.323,0.583,0.554,��쐼,1.9,��
2023/02/27,17:30,0.568,0.825,0.504,1.052,0.733,0.323,0.582,0.555,�쐼,4.6,��
2023/02/27,17:40,0.568,0.828,0.505,1.053,0.733,0.322,0.583,0.553,��,4.1,��
2023/02/27,17:50,0.566,0.829,0.504,1.053,0.734,0.322,0.582,0.555,���쐼,3.8,��
2023/02/27,18:00,0.567,0.826,0.503,1.053,0.732,0.323,0.581,0.553,��,4.1,��
2023/02/27,18:10,0.567,0.825,0.504,1.054,0.733,0.325,0.583,0.554,��,4.2,��
2023/02/27,18:20,0.567,0.826,0.504,1.054,0.735,0.323,0.583,0.555,���k��,5.2,��
2023/02/27,18:30,0.567,0.825,0.503,1.053,0.734,0.323,0.582,0.554,���k��,4.7,��
2023/02/27,18:40,0.567,0.824,0.504,1.053,0.734,0.323,0.582,0.552,���k��,6.5,��
2023/02/27,18:50,0.569,0.825,0.504,1.055,0.733,0.322,0.583,0.554,���k��,7.1,��
2023/02/27,19:00,0.566,0.824,0.505,1.054,0.733,0.322,0.582,0.554,���k��,5.8,��
2023/02/27,19:10,0.567,0.824,0.503,1.052,0.736,0.320,0.583,0.554,���k��,5.5,��
2023/02/27,19:20,0.566,0.826,0.504,1.053,0.736,0.321,0.583,0.553,���k��,5.2,��
2023/02/27,19:30,0.565,0.824,0.504,1.053,0.733,0.323,0.582,0.554,���k��,4.5,��
2023/02/27,19:40,0.567,0.825,0.504,1.053,0.734,0.322,0.583,0.556,���k��,4.1,��
2023/02/27,19:50,0.567,0.825,0.503,1.053,0.734,0.323,0.581,0.555,�k��,4.1,��
2023/02/27,20:00,0.567,0.826,0.503,1.052,0.734,0.322,0.584,0.553,�k��,4.9,��
2023/02/27,20:10,0.566,0.825,0.503,1.054,0.734,0.323,0.583,0.553,���k��,5.2,��
2023/02/27,20:20,0.567,0.824,0.504,1.053,0.733,0.322,0.582,0.554,�k��,3.5,��
2023/02/27,20:30,0.568,0.826,0.505,1.054,0.735,0.323,0.583,0.553,�k�k��,3.2,��
2023/02/27,20:40,0.568,0.825,0.503,1.051,0.732,0.323,0.582,0.552,�k��,3.6,��
2023/02/27,20:50,0.566,0.827,0.505,1.052,0.732,0.322,0.581,0.553,�k�k��,3.8,��
2023/02/27,21:00,0.565,0.826,0.505,1.053,0.734,0.322,0.581,0.554,�k��,3.4,��
2023/02/27,21:10,0.568,0.824,0.502,1.051,0.734,0.321,0.582,0.553,�k�k��,3.3,��
2023/02/27,21:20,0.565,0.824,0.503,1.053,0.734,0.321,0.581,0.553,�k��,2.2,��
2023/02/27,21:30,0.566,0.825,0.502,1.052,0.734,0.322,0.582,0.553,���k��,1.1,��
2023/02/27,21:40,0.567,0.825,0.503,1.051,0.734,0.322,0.580,0.553,�k��,1.7,��
2023/02/27,21:50,0.567,0.824,0.502,1.055,0.734,0.322,0.580,0.553,�k�k��,1.1,��
2023/02/27,22:00,0.567,0.825,0.503,1.053,0.733,0.323,0.581,0.553,�k��,1.2,��
2023/02/27,22:10,0.565,0.824,0.502,1.054,0.735,0.322,0.581,0.553,��,0.6,��
2023/02/27,22:20,0.565,0.825,0.502,1.053,0.735,0.323,0.580,0.554,-,CALM,��
2023/02/27,22:30,0.566,0.825,0.502,1.053,0.734,0.321,0.580,0.555,-,CALM,��
2023/02/27,22:40,0.565,0.824,0.501,1.051,0.734,0.322,0.580,0.553,��쓌,1.1,��
2023/02/27,22:50,0.565,0.824,0.503,1.052,0.733,0.322,0.581,0.553,��,0.9,��
2023/02/27,23:00,0.565,0.824,0.503,1.051,0.733,0.321,0.580,0.553,��,1.4,��
2023/02/27,23:10,0.566,0.823,0.502,1.053,0.731,0.322,0.580,0.553,��쐼,1.7,��
2023/02/27,23:20,0.566,0.824,0.504,1.053,0.734,0.321,0.581,0.553,�쐼,1.8,��
2023/02/27,23:30,0.566,0.825,0.503,1.052,0.733,0.322,0.582,0.554,��쐼,2.0,��
2023/02/27,23:40,0.565,0.824,0.501,1.051,0.735,0.321,0.581,0.554,�쐼,1.9,��
2023/02/27,23:50,0.567,0.825,0.504,1.052,0.734,0.323,0.581,0.553,��,1.9,��
